Home   Weather   Hyderabad   Past weeks

Flag for India Past Weather in Hyderabad, Telangana, India — Yesterday and Last 2 Weeks

Now
82 °F

Broken clouds.


Feels Like: 86 °F
Forecast: 76 / 89 °F
Wind: 5 mph from West

Location: Hyderabad Airport

Current Time: Jul 24, 2017 at 12:23:55 pm

Latest Report: Jul 24, 2017 at 11:00 am


Visibility: 4 mi

Pressure: 29.80 "Hg (28.13 "Hg at 507m altitude)

Humidity: 66%

Dew Point: 70 °F

Location of HyderabadLocation

Past Weather in Hyderabad — Graph

°F

Hyderabad Temperature Yesterday

Maximum temperature yesterday: 91 °F (at 3:00 pm)
Minimum temperature yesterday: 82 °F (at 10:30 am)
Average temperature yesterday: 87 °F

High & Low Weather Summary for the Past Weeks

 TemperatureHumidityPressure
High99 °F (Jul 10, 7:00 pm)100% (Jul 14, 9:30 pm)29.89 "Hg (Jul 14, 9:30 pm)
Low72 °F (Jul 18, 8:30 am)44% (Jul 10, 7:00 pm)29.62 "Hg (Jul 19, 1:30 pm)
Average81 °F79%29.75 "Hg
* Reported Jul 9 10:30 am — Jul 24 11:00 am, Hyderabad. Weather by CustomWeather, © 2017

Note: Actual official high and low records may vary slightly from our data, if they occured in-between our weather recording intervals... More about our weather records

Advertising

Hyderabad Weather History for the Previous 24 Hours

Scroll right to see more
 ConditionsComfort  
Time TempWeatherWind HumidityBarometerVisibility
11:00 am
Mon, Jul 24
82 °FBroken clouds.5 mph66%29.80 "Hg4 mi
10:00 am81 °FBroken clouds.5 mph70%29.80 "Hg4 mi
9:30 am81 °FBroken clouds.5 mph79%29.83 "Hg3 mi
9:00 am81 °FBroken clouds.5 mph79%29.83 "Hg3 mi
8:00 am77 °FBroken clouds.5 mph89%29.83 "Hg3 mi
9:30 pm
Sun, Jul 23
82 °FPassing clouds.2 mph70%29.77 "Hg4 mi
9:00 pm82 °FPassing clouds.3 mph66%29.77 "Hg4 mi
8:30 pm82 °FPassing clouds.3 mph66%29.77 "Hg4 mi
8:00 pm84 °FPassing clouds.3 mph66%29.74 "Hg4 mi
7:30 pm84 °FPassing clouds.3 mph70%29.74 "Hg4 mi
6:30 pm86 °FBroken clouds.5 mph62%29.71 "Hg4 mi
6:00 pm88 °FBroken clouds.6 mph59%29.71 "Hg4 mi
5:00 pm90 °FScattered clouds.6 mph55%29.71 "Hg4 mi
4:00 pm91 °FScattered clouds.7 mph52%29.71 "Hg4 mi
3:30 pm91 °FScattered clouds.7 mph52%29.71 "Hg4 mi
3:00 pm91 °FScattered clouds.7 mph52%29.71 "Hg4 mi
2:30 pm90 °FScattered clouds.7 mph55%29.74 "Hg4 mi
2:00 pm90 °FScattered clouds.7 mph55%29.74 "Hg4 mi
1:30 pm88 °FScattered clouds.6 mph59%29.77 "Hg4 mi
1:00 pm88 °FScattered clouds.7 mph59%29.77 "Hg4 mi
12:30 pm88 °FScattered clouds.6 mph59%29.77 "Hg4 mi
12:00 pm84 °FScattered clouds.7 mph66%29.77 "Hg4 mi
Weather by CustomWeather, © 2017

See weather overviewHow to use our weather pages